DELTA 1 DEB, 14465

Orbit data source: Space-Track

DELTA 1 DEB, 14465 is space debris in SSO originally from a launch on Sun, 05 Mar 1978 UTC launched from the Air Force Western Test Range (AFWTR). Debris objects in space refer to the collection of defunct objects orbiting the Earth. Examples of debris include non-operational satellites, rocket bodies, and fragments generated from explosions, collisions, or faulty payload assembly.

Loading next visibility...
Identifier
14465, 1978-026GF
Orbit
SSO
Country
Flag of USUS
Related business
Manufacturer
Unknown
Mission
Spacecraft
Bus & Motor
Unknown
Mass
Unknown
Launch date (UTC)
1978-03-05 (48 years ago)
Launch vehicle
Unknown
Launch site
Air Force Western Test Range (AFWTR)
Object type
Payload
Rocket body
Debris
Shape & HBR
Unknown shape, 0.1 m
Radar Cross Section
Medium (>0.1 m² and <1 m²)

Expand to show TLE details & history
Last TLE update: 3 days ago

TLE from 3 days ago
0 DELTA 1 DEB
1 14465U 78026GF  26170.36826094  .00001449  00000-0  69645-3 0  9998
2 14465  98.7727 328.7719 0103653 228.2214 191.5441 14.17624484219174
Epoch: 2026-06-19T08:50Z
TLE epoch observation values (Epoch: 2026-06-19T08:50:17.745Z)
Latitude
58.50695°
Longitude
-85.91216°
Altitude
916.527 km
Speed
7.361 km/s
True Right ascension
20h 57m 02s
True Declination
58° 21' 25"
Sunlit
Object was in daylight at epoch
Visualization orbit readout
Latitude
Unknown
Longitude
Unknown
Altitude
Unknown
Speed
Unknown
Apparent Right ascension
Unknown
Apparent Declination
Unknown
Sunlit
N/A
Visualization observer readout
Local Sidereal Time
23:08:32
Azimuth
Unknown
Elevation
Unknown
Doppler factor
Unknown
Orbital elements
Apogee altitude
905.282 km
Perigee altitude
755.842 km
Semi-major axis
7,208.699 km
Eccentricity
0.01037
Inclination
98.7727°
RAAN
328.7719°
Arg. of periapsis
228.2214°
True anomaly
191.30938°
Mean anomaly
191.5441°
Eccentric anomaly
191.42644°
Mean motion
3.54616 °/min
Orbital period
101.52 mins
BSTAR
0.00069645
Loading maneuver chart data...
Computing Atmospheric mass density...

Documentation

Showing up to 5 results
|